Location: Franzen
(48.6167°N, 15.3833°E)
Time: 13:52:22
(UTC+00:00)

Cosmos 2278 Rocket - Pass Details

Date: 22 April 2021
Orbit: 843 x 844 km, 71.0° (Epoch: 16 May)

Event Time Altitude Azimuth Distance (km) Brightness Sun altitude
Exits shadow 23:19:37 27° 95° (E) 1,561 3.5 -28.6°
Drops below altitude 10° 23:23:49 10° 47° (NE) 2,471 5.2 -28.6°
Sets 23:26:35 0° 36° (NE) 3,411 6.3 -28.5°
